Simultaneous Nadir Overpasses (SNOs) Predictions

Prediction of SNOs between GOES-16 and METOP-B Satellite Orbit:

Table of predicted SNOs for the next 14.0 days since TLE Epoch: 9/7/2024
Index Date Time (GOES-16) GOES-16 Lat,Lon METOP-B Lat,Lon Distance(km) Time Diff (sec)
1 09/08/2024 02:14:13 0.04, -75.20 0.39, -73.50 193.04 80
2 09/09/2024 14:30:25 -0.04, -75.21 0.61, -78.08 327.21 80
3 09/10/2024 14:12:25 -0.04, -75.21 -0.53, -73.09 241.73 80
4 09/12/2024 02:28:44 0.04, -75.21 -0.50, -77.70 283.35 80
5 09/13/2024 02:10:44 0.04, -75.21 0.59, -72.70 285.74 80
6 09/14/2024 14:26:54 -0.04, -75.22 0.43, -77.27 233.77 80
7 09/15/2024 14:08:54 -0.03, -75.23 -0.67, -72.28 335.76 80
8 09/17/2024 02:27:53 0.03, -75.24 -0.32, -76.89 187.96 80
9 09/18/2024 02:04:33 0.03, -75.25 0.79, -71.90 382.07 80
10 09/19/2024 14:23:22 -0.03, -75.27 0.25, -76.46 135.91 80
11 09/20/2024 14:05:21 -0.03, -75.29 -0.87, -71.47 434.51 80
